| time (UTC) | temp C | wind direction | speed KPH | gust KPH | rain 1hr cm | rain 24hr cm | rain mn cm | humidity % | barometer mb |
| 20260510174557 | 22 | 294 | 6.4 | 0.0 | 0.00 | 0.00 | 0.03 | 69 | 976.7 |
| 20260510173048 | 23 | 292 | 1.6 | 0.0 | 0.00 | 0.00 | 0.03 | 69 | 976.6 |
| 20260510171556 | 22 | 321 | 3.2 | 0.0 | 0.00 | 0.00 | 0.03 | 71 | 976.7 |
| 20260510170046 | 22 | 282 | 6.4 | 0.0 | 0.00 | 0.00 | 0.03 | 70 | 976.7 |
| 20260510164539 | 22 | 315 | 4.8 | 0.0 | 0.00 | 0.00 | 0.03 | 70 | 976.7 |
| 20260510163048 | 22 | 315 | 6.4 | 0.0 | 0.00 | 0.00 | 0.03 | 70 | 976.7 |
| 20260510161535 | 21 | 198 | 6.4 | 0.0 | 0.00 | 0.00 | 0.03 | 74 | 976.5 |
| 20260510160039 | 21 | 256 | 4.8 | 0.0 | 0.00 | 0.00 | 0.03 | 70 | 976.6 |
| 20260510154534 | 21 | 318 | 4.8 | 0.0 | 0.00 | 0.00 | 0.03 | 73 | 976.5 |
| 20260510153038 | 21 | 259 | 4.8 | 0.0 | 0.00 | 0.00 | 0.03 | 74 | 976.3 |
| 20260510151529 | 21 | 219 | 8.0 | 0.0 | 0.00 | 0.00 | 0.03 | 76 | 976.6 |
| 20260510150027 | 21 | 259 | 1.6 | 0.0 | 0.00 | 0.00 | 0.03 | 76 | 976.4 |
| 20260510144525 | 20 | 276 | 3.2 | 0.0 | 0.00 | 0.00 | 0.03 | 75 | 976.1 |
| 20260510143022 | 20 | 221 | 4.8 | 0.0 | 0.00 | 0.00 | 0.03 | 79 | 976.4 |
| 20260510141522 | 19 | 218 | 6.4 | 0.0 | 0.00 | 0.00 | 0.03 | 79 | 976.3 |
| 20260510140022 | 18 | 233 | 3.2 | 0.0 | 0.00 | 0.00 | 0.03 | 85 | 976.4 |
| 20260510134516 | 18 | 308 | 1.6 | 0.0 | 0.00 | 0.00 | 0.03 | 86 | 976.3 |
| 20260510133010 | 16 | 309 | 0.0 | 0.0 | 0.00 | 0.00 | 0.03 | 97 | 976.3 |
| 20260510131507 | 16 | 315 | 0.0 | 0.0 | 0.00 | 0.00 | 0.03 | 100 | 976.3 |
| 20260510130005 | 14 | 318 | 0.0 | 0.0 | 0.00 | 0.00 | 0.03 | 100 | 976.4 |
| 20260510124503 | 13 | 318 | 0.0 | 0.0 | 0.00 | 0.00 | 0.00 | 100 | 976.4 |
| 20260510123057 | 13 | 318 | 0.0 | 0.0 | 0.00 | 0.00 | 0.00 | 100 | 976.4 |
| 20260510121553 | 12 | 318 | 0.0 | 0.0 | 0.00 | 0.00 | 0.00 | 100 | 976.3 |
| 20260510120049 | 11 | 318 | 0.0 | 0.0 | 0.00 | 0.00 | 0.00 | 100 | 976.1 |
| 20260510114551 | 10 | 318 | 0.0 | 0.0 | 0.00 | 0.00 | 0.00 | 100 | 975.9 |
| 20260510113042 | 9 | 318 | 0.0 | 0.0 | 0.00 | 0.00 | 0.00 | 100 | 975.7 |
| 20260510111539 | 8 | 318 | 0.0 | 0.0 | 0.00 | 0.00 | 0.00 | 100 | 975.7 |
| 20260510110048 | 8 | 318 | 0.0 | 0.0 | 0.00 | 0.00 | 0.00 | 100 | 975.7 |
| 20260510104538 | 8 | 318 | 0.0 | 0.0 | 0.00 | 0.00 | 0.00 | 100 | 975.6 |
| 20260510103042 | 8 | 318 | 0.0 | 0.0 | 0.00 | 0.00 | 0.00 | 100 | 975.4 |
| 20260510101535 | 8 | 318 | 0.0 | 0.0 | 0.00 | 0.00 | 0.00 | 100 | 975.2 |
| 20260510100046 | 8 | 318 | 0.0 | 0.0 | 0.00 | 0.00 | 0.00 | 100 | 975.2 |
| 20260510094540 | 8 | 318 | 0.0 | 0.0 | 0.00 | 0.00 | 0.00 | 100 | 974.9 |
| 20260510093037 | 8 | 318 | 0.0 | 0.0 | 0.00 | 0.00 | 0.00 | 100 | 974.7 |
| 20260510091533 | 8 | 318 | 0.0 | 0.0 | 0.00 | 0.00 | 0.00 | 100 | 974.7 |
| 20260510090034 | 8 | 318 | 0.0 | 0.0 | 0.00 | 0.00 | 0.00 | 100 | 974.5 |
| 20260510084535 | 8 | 318 | 0.0 | 0.0 | 0.00 | 0.00 | 0.00 | 100 | 974.7 |
| 20260510083032 | 9 | 318 | 1.6 | 0.0 | 0.00 | 0.00 | 0.00 | 100 | 974.7 |
| 20260510081539 | 9 | 318 | 0.0 | 0.0 | 0.00 | 0.00 | 0.00 | 100 | 974.8 |
| 20260510080048 | 8 | 318 | 3.2 | 0.0 | 0.00 | 0.00 | 0.00 | 100 | 975.0 |
| 20260510074528 | 7 | 261 | 1.6 | 0.0 | 0.00 | 0.00 | 0.00 | 100 | 975.1 |
| 20260510073038 | 7 | 229 | 0.0 | 0.0 | 0.00 | 0.00 | 0.00 | 100 | 974.2 |
| 20260510071526 | 7 | 229 | 0.0 | 0.0 | 0.00 | 0.00 | 0.00 | 100 | 974.1 |
| 20260510070032 | 7 | 229 | 0.0 | 0.0 | 0.00 | 0.00 | 0.00 | 100 | 974.2 |
| 20260510064525 | 7 | 220 | 0.0 | 0.0 | 0.00 | 0.00 | 0.00 | 100 | 974.2 |
| 20260510063031 | 7 | 220 | 0.0 | 0.0 | 0.00 | 0.00 | 0.00 | 100 | 974.1 |
| 20260510061524 | 7 | 220 | 0.0 | 0.0 | 0.00 | 0.00 | 0.00 | 100 | 973.9 |
| 20260510060035 | 7 | 220 | 0.0 | 0.0 | 0.00 | 0.00 | 0.00 | 100 | 973.9 |
| 20260510054522 | 7 | 220 | 0.0 | 0.0 | 0.00 | 0.00 | 0.00 | 100 | 974.0 |
| 20260510053018 | 7 | 220 | 0.0 | 0.0 | 0.00 | 0.00 | 0.00 | 100 | 974.1 |
| 20260510051517 | 7 | 220 | 0.0 | 0.0 | 0.00 | 0.00 | 0.00 | 100 | 974.2 |
| 20260510050015 | 7 | 219 | 0.0 | 0.0 | 0.00 | 0.00 | 0.00 | 100 | 974.2 |
| 20260510044513 | 7 | 220 | 0.0 | 0.0 | 0.00 | 0.00 | 0.00 | 100 | 974.3 |
| 20260510043012 | 8 | 220 | 0.0 | 0.0 | 0.00 | 0.00 | 0.00 | 100 | 974.4 |
| 20260510041511 | 8 | 219 | 0.0 | 0.0 | 0.00 | 0.00 | 0.00 | 100 | 974.4 |
| 20260510040011 | 8 | 220 | 0.0 | 0.0 | 0.00 | 0.00 | 0.00 | 100 | 974.5 |
| 20260510034506 | 8 | 219 | 0.0 | 0.0 | 0.00 | 0.00 | 0.38 | 100 | 974.4 |
| 20260510033005 | 8 | 220 | 0.0 | 0.0 | 0.00 | 0.00 | 0.38 | 100 | 974.4 |
| 20260510031508 | 8 | 219 | 0.0 | 0.0 | 0.00 | 0.00 | 0.38 | 100 | 974.3 |
| 20260510030006 | 9 | 220 | 0.0 | 0.0 | 0.00 | 0.00 | 0.38 | 100 | 974.1 |
| 20260510024505 | 9 | 220 | 0.0 | 0.0 | 0.00 | 0.00 | 0.38 | 100 | 973.9 |
| 20260510023004 | 10 | 220 | 0.0 | 0.0 | 0.00 | 0.00 | 0.38 | 100 | 974.1 |
| 20260510021509 | 10 | 220 | 0.0 | 0.0 | 0.00 | 0.00 | 0.38 | 99 | 974.0 |
| 20260510020003 | 10 | 219 | 0.0 | 0.0 | 0.00 | 0.00 | 0.38 | 99 | 973.9 |
| 20260510014502 | 10 | 219 | 0.0 | 0.0 | 0.00 | 0.00 | 0.38 | 99 | 973.8 |
| 20260510013001 | 11 | 219 | 0.0 | 0.0 | 0.00 | 0.00 | 0.38 | 99 | 973.6 |
| 20260510011501 | 11 | 220 | 0.0 | 0.0 | 0.00 | 0.00 | 0.38 | 99 | 973.5 |
| 20260510010000 | 12 | 220 | 0.0 | 0.0 | 0.00 | 0.00 | 0.38 | 99 | 973.6 |
| 20260510004602 | 12 | 220 | 0.0 | 0.0 | 0.00 | 0.00 | 0.38 | 99 | 973.5 |
| 20260510003105 | 12 | 220 | 0.0 | 0.0 | 0.00 | 0.00 | 0.38 | 99 | 973.2 |
| 20260510001608 | 13 | 219 | 0.0 | 0.0 | 0.00 | 0.00 | 0.38 | 99 | 973.0 |
| 20260510000058 | 13 | 220 | 0.0 | 0.0 | 0.00 | 0.00 | 0.38 | 98 | 973.0 |
| 20260509234559 | 13 | 219 | 0.0 | 0.0 | 0.00 | 0.00 | 0.38 | 98 | 972.9 |
| 20260509233102 | 14 | 219 | 0.0 | 0.0 | 0.00 | 0.00 | 0.38 | 96 | 973.0 |
| 20260509231604 | 14 | 219 | 0.0 | 0.0 | 0.00 | 0.00 | 0.38 | 95 | 972.9 |
| 20260509230059 | 15 | 220 | 0.0 | 0.0 | 0.00 | 0.00 | 0.38 | 94 | 973.0 |
| 20260509224556 | 15 | 221 | 0.0 | 0.0 | 0.00 | 0.00 | 0.38 | 92 | 972.9 |
| 20260509223055 | 15 | 221 | 0.0 | 0.0 | 0.00 | 0.00 | 0.38 | 93 | 972.9 |
| 20260509221552 | 14 | 221 | 0.0 | 0.0 | 0.00 | 0.00 | 0.38 | 96 | 973.0 |
| 20260509220052 | 14 | 221 | 0.0 | 0.0 | 0.00 | 0.00 | 0.38 | 96 | 973.1 |
| 20260509214550 | 14 | 221 | 0.0 | 0.0 | 0.00 | 0.00 | 0.38 | 97 | 973.0 |
| 20260509213103 | 13 | 221 | 0.0 | 0.0 | 0.00 | 0.00 | 0.38 | 98 | 973.0 |
| 20260509211549 | 13 | 221 | 0.0 | 0.0 | 0.00 | 0.00 | 0.38 | 99 | 973.2 |
| 20260509210050 | 13 | 221 | 0.0 | 0.0 | 0.00 | 0.00 | 0.38 | 99 | 973.2 |
| 20260509204546 | 13 | 221 | 0.0 | 0.0 | 0.00 | 0.00 | 0.38 | 100 | 973.2 |
| 20260509203045 | 13 | 229 | 0.0 | 0.0 | 0.00 | 0.00 | 0.38 | 100 | 973.3 |
| 20260509201545 | 13 | 231 | 0.0 | 0.0 | 0.00 | 0.00 | 0.38 | 100 | 973.3 |
| 20260509200051 | 13 | 227 | 0.0 | 0.0 | 0.00 | 0.00 | 0.38 | 100 | 973.2 |
| 20260509194553 | 12 | 227 | 1.6 | 0.0 | 0.00 | 0.00 | 0.38 | 100 | 973.2 |
| 20260509193043 | 12 | 225 | 0.0 | 0.0 | 0.00 | 0.00 | 0.38 | 100 | 973.6 |
| 20260509191539 | 12 | 225 | 0.0 | 0.0 | 0.00 | 0.00 | 0.38 | 100 | 974.0 |
| 20260509190040 | 12 | 225 | 0.0 | 0.0 | 0.00 | 0.00 | 0.33 | 100 | 974.3 |
| 20260509184538 | 12 | 225 | 0.0 | 0.0 | 0.00 | 0.00 | 0.30 | 100 | 974.4 |
| 20260509183037 | 12 | 225 | 0.0 | 0.0 | 0.00 | 0.00 | 0.30 | 98 | 974.7 |
| 20260509181537 | 12 | 225 | 0.0 | 0.0 | 0.00 | 0.00 | 0.28 | 97 | 974.9 |
| 20260509180050 | 12 | 225 | 0.0 | 0.0 | 0.00 | 0.00 | 0.28 | 97 | 975.0 |